Location: Jarosław
(50.0191°N, 22.6835°E)
Time: 19:18:43
(UTC+01:00)

ISS - Visible Passes

Search period start: 22 February 2018 00:00
Search period end: 04 March 2018 00:00
Orbit: 402 x 407 km, 51.6° (Epoch: 23 February)

Date Brightness Start Highest point End Pass type
(mag) Time Alt. Az. Time Alt. Az. Time Alt. Az.
25 Feb -0.4 05:44:23 10° SSE 05:45:06 11° SE 05:45:50 10° ESE visible
27 Feb -1.3 05:34:11 10° SSW 05:36:41 20° SE 05:39:11 10° E visible
28 Feb -0.9 04:43:06 10° SSE 04:44:38 13° SE 04:46:10 10° ESE visible
01 Mar -2.4 05:25:17 10° SW 05:28:20 36° SSE 05:31:23 10° E visible
02 Mar -1.8 04:34:05 14° SSW 04:36:09 24° SE 04:38:52 10° E visible
03 Mar -1.2 03:44:04 15° SE 03:44:04 15° SE 03:46:01 10° ESE visible
03 Mar -3.5 05:16:47 10° WSW 05:20:02 63° SSE 05:23:17 10° ENE visible
